DRGN03 YAMB-YAMB

Flight info

Callsign DRGN03
Flight time N/A
Altitude 27000
Route YBBN DCT BOBED DCT VIRGE DCT 273136S1551154E DCT AM13C DCT AM104 DCT CG
Aircraft A332/H-SDE3GHIJ2J3J5M1RVWXY/LB2D1

Departure

Time 2026-04-12 09:26
Airport RAAF Base Amberley (YAMB)

Arrival

Time N/A
Airport RAAF Base Amberley (YAMB)
Time Latitude Longitude Altitude Speed Heading
2026-04-12 09:26 -27.58605 152.69133 2805 ft 203 kts 339°
2026-04-12 09:26 -27.57261 152.68616 3465 ft 204 kts 339°
2026-04-12 09:27 -27.55844 152.68208 3845 ft 222 kts 355°
2026-04-12 09:27 -27.54253 152.68627 4130 ft 251 kts 28°
2026-04-12 09:27 -27.52941 152.70024 4451 ft 270 kts 57°
2026-04-12 09:27 -27.52046 152.71920 4951 ft 277 kts 65°
2026-04-12 09:28 -27.51247 152.73869 5532 ft 280 kts 65°
2026-04-12 09:28 -27.50375 152.75850 6103 ft 282 kts 63°
2026-04-12 09:28 -27.49426 152.77819 6508 ft 294 kts 60°
2026-04-12 09:28 -27.48387 152.79848 7067 ft 300 kts 59°
2026-04-12 09:29 -27.47322 152.81873 7815 ft 302 kts 59°
2026-04-12 09:29 -27.46237 152.83919 8520 ft 305 kts 59°
2026-04-12 09:29 -27.45137 152.85991 9200 ft 310 kts 59°
2026-04-12 09:29 -27.44033 152.88074 9886 ft 314 kts 59°
2026-04-12 09:30 -27.42905 152.90206 10415 ft 324 kts 59°
2026-04-12 09:30 -27.41800 152.92296 10629 ft 344 kts 59°
2026-04-12 09:30 -27.40544 152.94674 10870 ft 364 kts 59°
2026-04-12 09:30 -27.39234 152.97151 11493 ft 369 kts 59°
2026-04-12 09:31 -27.37934 152.99612 12185 ft 373 kts 59°
2026-04-12 09:31 -27.36598 153.02139 12860 ft 378 kts 58°
2026-04-12 09:31 -27.35247 153.04690 13552 ft 383 kts 58°
2026-04-12 09:31 -27.33873 153.07285 14144 ft 388 kts 58°
2026-04-12 09:32 -27.32484 153.09906 14765 ft 392 kts 58°
2026-04-12 09:32 -27.31078 153.12560 15348 ft 397 kts 57°
2026-04-12 09:32 -27.29650 153.15252 15937 ft 402 kts 57°
2026-04-12 09:32 -27.28208 153.17972 16503 ft 407 kts 57°
2026-04-12 09:33 -27.27012 153.20893 17070 ft 416 kts 70°
2026-04-12 09:33 -27.26403 153.24084 17617 ft 424 kts 84°
2026-04-12 09:33 -27.26296 153.27437 18155 ft 430 kts 89°
2026-04-12 09:33 -27.26247 153.30813 18644 ft 435 kts 89°
2026-04-12 09:34 -27.26201 153.34190 19133 ft 439 kts 89°
2026-04-12 09:34 -27.26135 153.37644 19633 ft 444 kts 88°
2026-04-12 09:34 -27.26054 153.41126 20135 ft 449 kts 88°
2026-04-12 09:34 -27.25962 153.44663 20645 ft 453 kts 88°
2026-04-12 09:35 -27.25866 153.48221 21159 ft 458 kts 87°
2026-04-12 09:35 -27.25769 153.51819 21667 ft 463 kts 88°
2026-04-12 09:35 -27.25700 153.55461 22162 ft 468 kts 89°
2026-04-12 09:35 -27.25632 153.59137 22676 ft 473 kts 88°
2026-04-12 09:36 -27.25549 153.62857 23197 ft 477 kts 88°
2026-04-12 09:36 -27.25450 153.66600 23662 ft 483 kts 87°
2026-04-12 09:36 -27.25343 153.70390 23858 ft 486 kts 87°
2026-04-12 09:36 -27.25231 153.74188 23915 ft 486 kts 87°
2026-04-12 09:37 -27.25117 153.77980 23919 ft 485 kts 87°
2026-04-12 09:37 -27.25002 153.81767 23917 ft 485 kts 87°
2026-04-12 09:37 -27.24887 153.85560 23919 ft 485 kts 87°
2026-04-12 09:37 -27.24771 153.89357 23918 ft 485 kts 86°
2026-04-12 09:38 -27.24656 153.93097 23920 ft 485 kts 86°
2026-04-12 09:38 -27.24538 153.96891 23930 ft 485 kts 86°
2026-04-12 09:38 -27.24421 154.00678 23928 ft 485 kts 86°
2026-04-12 09:38 -27.24305 154.04466 23925 ft 484 kts 86°
2026-04-12 09:39 -27.24189 154.08248 23927 ft 484 kts 86°
2026-04-12 09:39 -27.24071 154.12047 23929 ft 484 kts 86°
2026-04-12 09:39 -27.23952 154.15828 23918 ft 485 kts 86°
2026-04-12 09:39 -27.23833 154.19613 23926 ft 484 kts 86°
2026-04-12 09:40 -27.23713 154.23394 23925 ft 484 kts 86°
2026-04-12 09:40 -27.23593 154.27173 23921 ft 484 kts 86°
2026-04-12 09:40 -27.23471 154.30948 23927 ft 484 kts 86°
2026-04-12 09:40 -27.23349 154.34724 23924 ft 484 kts 86°
2026-04-12 09:41 -27.23226 154.38512 23930 ft 484 kts 86°
2026-04-12 09:41 -27.23102 154.42289 23920 ft 484 kts 86°
2026-04-12 09:41 -27.22977 154.46075 23921 ft 484 kts 86°
2026-04-12 09:41 -27.22853 154.49804 23929 ft 484 kts 86°
2026-04-12 09:42 -27.22727 154.53580 23919 ft 484 kts 86°
2026-04-12 09:42 -27.22600 154.57360 23924 ft 484 kts 85°
2026-04-12 09:42 -27.22471 154.61134 23925 ft 484 kts 85°
2026-04-12 09:43 -27.22384 154.72478 23924 ft 487 kts 99°
2026-04-12 09:43 -27.23288 154.76143 23928 ft 486 kts 114°
2026-04-12 09:43 -27.24880 154.79475 23929 ft 482 kts 128°
2026-04-12 09:44 -27.26960 154.82424 23929 ft 479 kts 135°
2026-04-12 09:44 -27.29112 154.85217 23929 ft 479 kts 135°
2026-04-12 09:44 -27.31261 154.88091 23926 ft 480 kts 133°
2026-04-12 09:44 -27.33352 154.91028 23930 ft 481 kts 132°
2026-04-12 09:45 -27.35404 154.94011 23927 ft 481 kts 131°
2026-04-12 09:45 -27.37429 154.97009 23929 ft 482 kts 131°
2026-04-12 09:45 -27.39452 155.00029 23946 ft 485 kts 131°
2026-04-12 09:45 -27.41483 155.03077 23933 ft 488 kts 130°
2026-04-12 09:46 -27.43517 155.06137 23940 ft 487 kts 131°
2026-04-12 09:46 -27.45554 155.09179 23925 ft 486 kts 131°
2026-04-12 09:46 -27.47591 155.12223 23928 ft 487 kts 129°
2026-04-12 09:46 -27.49312 155.15541 23948 ft 493 kts 112°
2026-04-12 09:47 -27.50223 155.19223 23981 ft 483 kts 92°
2026-04-12 09:47 -27.50162 155.22908 24144 ft 464 kts 73°
2026-04-12 09:47 -27.49194 155.26311 24092 ft 452 kts 53°
2026-04-12 09:47 -27.47454 155.29194 24330 ft 444 kts 42°
2026-04-12 09:48 -27.45597 155.31993 24847 ft 446 kts 44°
2026-04-12 09:48 -27.43795 155.34858 25298 ft 452 kts 46°
2026-04-12 09:48 -27.42055 155.37780 25732 ft 457 kts 47°
2026-04-12 09:48 -27.40306 155.40800 26157 ft 462 kts 47°
2026-04-12 09:49 -27.38555 155.43849 26592 ft 466 kts 47°
2026-04-12 09:49 -27.36782 155.46933 26856 ft 471 kts 47°
2026-04-12 09:49 -27.35002 155.50023 26929 ft 470 kts 47°
2026-04-12 09:49 -27.33222 155.53110 26929 ft 469 kts 47°
2026-04-12 09:50 -27.31447 155.56181 26927 ft 468 kts 47°
2026-04-12 09:50 -27.29665 155.59255 26930 ft 468 kts 47°
2026-04-12 09:50 -27.27884 155.62316 26929 ft 468 kts 47°
2026-04-12 09:50 -27.26102 155.65376 26929 ft 468 kts 47°
2026-04-12 09:51 -27.24322 155.68434 26929 ft 467 kts 47°
2026-04-12 09:51 -27.22542 155.71491 26929 ft 467 kts 47°
2026-04-12 09:51 -27.20763 155.74544 26929 ft 467 kts 47°
2026-04-12 09:51 -27.18986 155.77591 26932 ft 467 kts 47°
2026-04-12 09:52 -27.17205 155.80641 26932 ft 466 kts 47°
2026-04-12 09:52 -27.15428 155.83680 26934 ft 466 kts 47°
2026-04-12 09:52 -27.13645 155.86726 26933 ft 466 kts 47°
2026-04-12 09:52 -27.11887 155.89726 26934 ft 466 kts 47°
2026-04-12 09:53 -27.09981 155.92625 26938 ft 455 kts 37°
2026-04-12 09:53 -27.07689 155.94984 26938 ft 439 kts 25°
2026-04-12 09:53 -27.05127 155.96727 26930 ft 423 kts 13°
2026-04-12 09:53 -27.02425 155.97852 26933 ft 407 kts
2026-04-12 09:54 -26.99686 155.98386 26933 ft 393 kts 352°
2026-04-12 09:54 -26.97005 155.98363 26935 ft 380 kts 342°
2026-04-12 09:54 -26.94444 155.97847 26935 ft 369 kts 333°
2026-04-12 09:54 -26.92068 155.96874 26933 ft 359 kts 324°
2026-04-12 09:55 -26.89917 155.95523 26929 ft 351 kts 317°
2026-04-12 09:55 -26.88008 155.93853 26934 ft 345 kts 310°
2026-04-12 09:55 -26.86373 155.91917 26933 ft 340 kts 303°
2026-04-12 09:55 -26.85030 155.89754 26932 ft 337 kts 296°
2026-04-12 09:56 -26.83998 155.87407 26932 ft 335 kts 289°
2026-04-12 09:56 -26.83292 155.84921 26932 ft 335 kts 282°
2026-04-12 09:56 -26.82928 155.82385 26929 ft 335 kts 275°
2026-04-12 09:56 -26.82903 155.79765 26933 ft 338 kts 268°
2026-04-12 09:57 -26.83233 155.77154 26935 ft 341 kts 261°
2026-04-12 09:57 -26.83922 155.74592 26935 ft 346 kts 254°
2026-04-12 09:57 -26.84976 155.72135 26937 ft 353 kts 246°
2026-04-12 09:57 -26.86391 155.69847 26935 ft 361 kts 238°
2026-04-12 09:58 -26.88131 155.67783 26939 ft 368 kts 233°
2026-04-12 09:58 -26.89956 155.65813 26934 ft 368 kts 233°
2026-04-12 09:58 -26.91793 155.63823 26934 ft 367 kts 233°
2026-04-12 09:58 -26.93616 155.61813 26933 ft 366 kts 234°
2026-04-12 09:59 -26.95421 155.59791 26934 ft 366 kts 234°
2026-04-12 09:59 -26.97212 155.57768 26937 ft 365 kts 234°
2026-04-12 09:59 -26.98999 155.55744 26936 ft 365 kts 234°
2026-04-12 09:59 -27.00783 155.53721 26936 ft 365 kts 234°
2026-04-12 10:00 -27.02570 155.51696 26937 ft 364 kts 234°
2026-04-12 10:00 -27.04355 155.49674 26936 ft 364 kts 234°
2026-04-12 10:00 -27.06139 155.47654 26934 ft 364 kts 234°
2026-04-12 10:00 -27.07921 155.45637 26927 ft 364 kts 234°
2026-04-12 10:01 -27.09702 155.43622 26934 ft 364 kts 234°
2026-04-12 10:01 -27.11461 155.41632 26935 ft 363 kts 234°
2026-04-12 10:01 -27.13243 155.39618 26934 ft 363 kts 234°
2026-04-12 10:01 -27.15021 155.37608 26933 ft 363 kts 235°
2026-04-12 10:02 -27.16800 155.35597 26933 ft 362 kts 235°
2026-04-12 10:02 -27.18582 155.33583 26932 ft 362 kts 235°
2026-04-12 10:02 -27.19756 155.32257 26932 ft 362 kts 235°
2026-04-12 10:02 -27.22130 155.29576 26930 ft 362 kts 235°
2026-04-12 10:03 -27.23906 155.27569 26935 ft 362 kts 235°
2026-04-12 10:03 -27.25080 155.26244 26935 ft 361 kts 235°
2026-04-12 10:03 -27.26852 155.24244 26935 ft 361 kts 235°
2026-04-12 10:03 -27.29223 155.21568 26933 ft 361 kts 235°
2026-04-12 10:04 -27.30394 155.20247 26937 ft 361 kts 235°
2026-04-12 10:04 -27.32169 155.18244 26935 ft 360 kts 235°
2026-04-12 10:04 -27.33936 155.16251 26938 ft 360 kts 235°
2026-04-12 10:04 -27.35706 155.14254 26937 ft 360 kts 235°
2026-04-12 10:05 -27.37518 155.12304 26938 ft 365 kts 230°
2026-04-12 10:05 -27.39589 155.10582 26937 ft 376 kts 223°
2026-04-12 10:05 -27.41939 155.09192 26936 ft 389 kts 214°
2026-04-12 10:05 -27.44563 155.08256 26931 ft 404 kts 204°
2026-04-12 10:06 -27.47409 155.07871 26933 ft 420 kts 192°
2026-04-12 10:06 -27.50380 155.08119 26937 ft 438 kts 180°
2026-04-12 10:06 -27.53367 155.09066 26941 ft 455 kts 167°
2026-04-12 10:06 -27.56221 155.10747 26940 ft 472 kts 154°
2026-04-12 10:07 -27.58777 155.13153 26938 ft 486 kts 139°
2026-04-12 10:07 -27.60853 155.16199 26929 ft 496 kts 124°
2026-04-12 10:07 -27.62312 155.19749 26934 ft 501 kts 109°
2026-04-12 10:07 -27.63055 155.23582 26942 ft 502 kts 94°
2026-04-12 10:08 -27.63042 155.27497 26931 ft 497 kts 78°
2026-04-12 10:08 -27.62279 155.31247 26928 ft 487 kts 63°
2026-04-12 10:08 -27.60821 155.34621 26931 ft 472 kts 47°
2026-04-12 10:08 -27.58788 155.37423 26929 ft 454 kts 33°
2026-04-12 10:09 -27.56516 155.39895 26929 ft 455 kts 34°
2026-04-12 10:09 -27.54279 155.42421 26936 ft 455 kts 35°
2026-04-12 10:09 -27.52057 155.44951 26934 ft 455 kts 34°
2026-04-12 10:09 -27.49827 155.47476 26941 ft 454 kts 34°
2026-04-12 10:10 -27.47593 155.49992 26938 ft 454 kts 34°
2026-04-12 10:10 -27.45356 155.52503 26938 ft 453 kts 34°
2026-04-12 10:10 -27.43153 155.54972 26934 ft 453 kts 34°
2026-04-12 10:10 -27.40919 155.57473 26932 ft 453 kts 34°
2026-04-12 10:11 -27.38686 155.59974 26933 ft 453 kts 34°
2026-04-12 10:11 -27.36455 155.62474 26932 ft 452 kts 34°
2026-04-12 10:11 -27.34228 155.64971 26936 ft 452 kts 34°
2026-04-12 10:11 -27.31998 155.67472 26936 ft 452 kts 35°
2026-04-12 10:12 -27.29771 155.69969 26938 ft 452 kts 35°
2026-04-12 10:12 -27.27542 155.72469 26931 ft 451 kts 35°
2026-04-12 10:12 -27.25318 155.74963 26936 ft 451 kts 35°
2026-04-12 10:12 -27.23121 155.77428 26936 ft 451 kts 35°
2026-04-12 10:13 -27.20893 155.79928 26936 ft 451 kts 35°
2026-04-12 10:13 -27.18677 155.82416 26938 ft 451 kts 35°
2026-04-12 10:13 -27.16458 155.84906 26936 ft 451 kts 35°
2026-04-12 10:13 -27.14242 155.87394 26937 ft 451 kts 35°
2026-04-12 10:14 -27.12024 155.89885 26937 ft 451 kts 35°
2026-04-12 10:14 -27.09753 155.92278 26937 ft 441 kts 27°
2026-04-12 10:14 -27.07187 155.94025 26938 ft 423 kts 13°
2026-04-12 10:14 -27.04459 155.95097 26939 ft 407 kts
2026-04-12 10:15 -27.01708 155.95577 26936 ft 394 kts 352°
2026-04-12 10:15 -26.99013 155.95519 26938 ft 382 kts 343°
2026-04-12 10:15 -26.96441 155.94971 26938 ft 371 kts 334°
2026-04-12 10:15 -26.94049 155.93983 26937 ft 362 kts 326°
2026-04-12 10:16 -26.91910 155.92628 26936 ft 354 kts 318°
2026-04-12 10:16 -26.89999 155.90925 26938 ft 348 kts 310°
2026-04-12 10:16 -26.88376 155.88941 26934 ft 344 kts 303°
2026-04-12 10:16 -26.87059 155.86729 26935 ft 340 kts 296°
2026-04-12 10:17 -26.86065 155.84333 26940 ft 338 kts 288°
2026-04-12 10:17 -26.85409 155.81812 26940 ft 338 kts 281°
2026-04-12 10:17 -26.85098 155.79199 26937 ft 339 kts 274°
2026-04-12 10:17 -26.85144 155.76554 26938 ft 341 kts 267°
2026-04-12 10:18 -26.85553 155.73921 26938 ft 345 kts 260°
2026-04-12 10:18 -26.86329 155.71361 26939 ft 350 kts 252°
2026-04-12 10:18 -26.87470 155.68926 26932 ft 357 kts 244°
2026-04-12 10:18 -26.88975 155.66679 26934 ft 365 kts 236°
2026-04-12 10:19 -26.90780 155.64649 26939 ft 370 kts 232°
2026-04-12 10:19 -26.92656 155.62664 26939 ft 370 kts 232°
2026-04-12 10:19 -26.94489 155.60697 26939 ft 369 kts 233°
2026-04-12 10:19 -26.96319 155.58688 26938 ft 368 kts 233°
2026-04-12 10:20 -26.98135 155.56660 26939 ft 367 kts 234°
2026-04-12 10:20 -26.99935 155.54632 26940 ft 367 kts 234°
2026-04-12 10:20 -27.01730 155.52595 26940 ft 367 kts 234°
2026-04-12 10:20 -27.03521 155.50555 26941 ft 366 kts 234°
2026-04-12 10:21 -27.05308 155.48524 26938 ft 366 kts 234°
2026-04-12 10:21 -27.07102 155.46491 26940 ft 366 kts 234°
2026-04-12 10:21 -27.08897 155.44460 26939 ft 366 kts 234°
2026-04-12 10:21 -27.10692 155.42432 26939 ft 366 kts 234°
2026-04-12 10:22 -27.12487 155.40406 26938 ft 366 kts 234°
2026-04-12 10:22 -27.14281 155.38381 26939 ft 365 kts 234°
2026-04-12 10:22 -27.16071 155.36362 26940 ft 365 kts 234°
2026-04-12 10:22 -27.17868 155.34336 26939 ft 365 kts 234°
2026-04-12 10:23 -27.19657 155.32320 26939 ft 365 kts 234°
2026-04-12 10:23 -27.21451 155.30297 26937 ft 365 kts 234°
2026-04-12 10:23 -27.23218 155.28303 26938 ft 365 kts 234°
2026-04-12 10:23 -27.25010 155.26281 26936 ft 364 kts 234°
2026-04-12 10:24 -27.26797 155.24265 26937 ft 364 kts 234°
2026-04-12 10:24 -27.28592 155.22240 26937 ft 364 kts 234°
2026-04-12 10:24 -27.30381 155.20224 26938 ft 364 kts 234°
2026-04-12 10:24 -27.32170 155.18209 26940 ft 364 kts 234°
2026-04-12 10:25 -27.33960 155.16194 26939 ft 364 kts 234°
2026-04-12 10:25 -27.35749 155.14178 26940 ft 364 kts 234°
2026-04-12 10:25 -27.37588 155.12198 26938 ft 369 kts 229°
2026-04-12 10:25 -27.39681 155.10474 26936 ft 378 kts 221°
2026-04-12 10:26 -27.42063 155.09107 26937 ft 391 kts 212°
2026-04-12 10:26 -27.44676 155.08212 26939 ft 405 kts 202°
2026-04-12 10:26 -27.47515 155.07844 26940 ft 419 kts 192°
2026-04-12 10:26 -27.50478 155.08090 26948 ft 435 kts 180°
2026-04-12 10:27 -27.53441 155.09032 26945 ft 452 kts 167°
2026-04-12 10:27 -27.56269 155.10705 26943 ft 467 kts 154°
2026-04-12 10:27 -27.58789 155.13078 26940 ft 479 kts 140°
2026-04-12 10:27 -27.60850 155.16076 26938 ft 489 kts 125°
2026-04-12 10:28 -27.62324 155.19555 26942 ft 495 kts 110°
2026-04-12 10:28 -27.63116 155.23327 26941 ft 495 kts 96°
2026-04-12 10:28 -27.63184 155.27187 26939 ft 492 kts 81°
2026-04-12 10:28 -27.62523 155.30943 26940 ft 484 kts 66°
2026-04-12 10:29 -27.61186 155.34368 26941 ft 472 kts 52°
2026-04-12 10:29 -27.59265 155.37284 26933 ft 456 kts 37°
2026-04-12 10:29 -27.57002 155.39750 26938 ft 451 kts 33°
2026-04-12 10:29 -27.54549 155.41853 26937 ft 434 kts 19°
2026-04-12 10:30 -27.51854 155.43169 26937 ft 414 kts
2026-04-12 10:30 -27.49087 155.43652 26940 ft 393 kts 349°
2026-04-12 10:30 -27.46474 155.43313 26939 ft 374 kts 334°
2026-04-12 10:30 -27.44141 155.42211 26941 ft 357 kts 320°
2026-04-12 10:31 -27.42277 155.40456 26943 ft 345 kts 306°
2026-04-12 10:31 -27.40830 155.38327 26934 ft 341 kts 300°
2026-04-12 10:31 -27.39583 155.36064 26936 ft 339 kts 295°
2026-04-12 10:31 -27.38538 155.33689 26938 ft 337 kts 290°
2026-04-12 10:32 -27.37782 155.31192 26938 ft 336 kts 283°
2026-04-12 10:32 -27.37391 155.28601 26941 ft 337 kts 275°
2026-04-12 10:32 -27.37411 155.25956 26943 ft 339 kts 266°
2026-04-12 10:32 -27.37856 155.23371 26943 ft 343 kts 258°
2026-04-12 10:33 -27.38747 155.20851 26942 ft 350 kts 249°
2026-04-12 10:33 -27.40076 155.18515 26939 ft 359 kts 239°
2026-04-12 10:33 -27.41784 155.16423 26940 ft 364 kts 234°
2026-04-12 10:33 -27.43541 155.14373 26939 ft 364 kts 235°
2026-04-12 10:34 -27.45292 155.12314 26941 ft 363 kts 235°
2026-04-12 10:34 -27.47036 155.10256 26942 ft 363 kts 235°
2026-04-12 10:34 -27.48782 155.08194 26943 ft 363 kts 235°
2026-04-12 10:34 -27.50527 155.06134 26943 ft 363 kts 235°
2026-04-12 10:35 -27.52271 155.04075 26941 ft 363 kts 235°
2026-04-12 10:35 -27.53993 155.02041 26945 ft 363 kts 235°
2026-04-12 10:35 -27.55737 154.99981 26946 ft 363 kts 235°
2026-04-12 10:35 -27.57480 154.97920 26947 ft 363 kts 235°
2026-04-12 10:36 -27.59229 154.95853 26944 ft 362 kts 235°
2026-04-12 10:36 -27.60780 154.93664 26947 ft 352 kts 246°
2026-04-12 10:36 -27.61799 154.91203 26949 ft 343 kts 257°
2026-04-12 10:36 -27.62304 154.88633 26947 ft 338 kts 267°
2026-04-12 10:37 -27.62315 154.85996 26943 ft 336 kts 277°
2026-04-12 10:37 -27.61832 154.83427 26941 ft 336 kts 287°
2026-04-12 10:37 -27.60865 154.81017 26937 ft 340 kts 297°
2026-04-12 10:37 -27.59428 154.78863 26941 ft 347 kts 308°
2026-04-12 10:38 -27.57567 154.77091 26943 ft 357 kts 319°
2026-04-12 10:38 -27.55319 154.75804 26944 ft 371 kts 331°
2026-04-12 10:38 -27.52757 154.75130 26944 ft 387 kts 344°
2026-04-12 10:38 -27.50010 154.75117 26942 ft 398 kts 351°
2026-04-12 10:39 -27.47245 154.75230 26940 ft 398 kts 351°
2026-04-12 10:39 -27.44478 154.75334 26943 ft 397 kts 351°
2026-04-12 10:39 -27.41712 154.75433 26942 ft 397 kts 351°
2026-04-12 10:39 -27.38947 154.75530 26943 ft 398 kts 351°
2026-04-12 10:40 -27.36180 154.75627 26941 ft 398 kts 351°
2026-04-12 10:40 -27.33416 154.75717 26940 ft 396 kts 349°
2026-04-12 10:40 -27.30743 154.75363 26947 ft 379 kts 335°
2026-04-12 10:40 -27.28368 154.74330 26940 ft 364 kts 321°
2026-04-12 10:41 -27.26342 154.72706 26938 ft 354 kts 309°
2026-04-12 10:41 -27.24725 154.70670 26944 ft 347 kts 299°
2026-04-12 10:41 -27.23554 154.68329 26940 ft 342 kts 289°
2026-04-12 10:41 -27.22866 154.65782 26941 ft 340 kts 278°
2026-04-12 10:42 -27.22690 154.63139 26945 ft 341 kts 268°
2026-04-12 10:42 -27.23041 154.60489 26943 ft 346 kts 257°
2026-04-12 10:42 -27.23926 154.57953 26943 ft 353 kts 246°
2026-04-12 10:42 -27.25337 154.55659 26950 ft 363 kts 235°
2026-04-12 10:43 -27.29617 154.52347 26942 ft 393 kts 209°
2026-04-12 10:43 -27.32314 154.51574 26944 ft 404 kts 201°
2026-04-12 10:43 -27.35069 154.50939 26945 ft 404 kts 201°
2026-04-12 10:44 -27.37828 154.50295 26946 ft 404 kts 201°
2026-04-12 10:44 -27.40573 154.49648 26944 ft 403 kts 201°
2026-04-12 10:44 -27.43324 154.49000 26945 ft 403 kts 201°
2026-04-12 10:44 -27.46071 154.48348 26945 ft 403 kts 201°
2026-04-12 10:45 -27.48790 154.47700 26946 ft 403 kts 202°
2026-04-12 10:45 -27.51537 154.47044 26948 ft 403 kts 202°
2026-04-12 10:45 -27.54290 154.46386 26947 ft 403 kts 202°
2026-04-12 10:45 -27.57041 154.45729 26950 ft 403 kts 202°
2026-04-12 10:46 -27.59791 154.45072 26949 ft 403 kts 202°
2026-04-12 10:46 -27.62534 154.44417 26949 ft 403 kts 202°
2026-04-12 10:46 -27.65243 154.43771 26950 ft 403 kts 202°
2026-04-12 10:46 -27.67985 154.43116 26948 ft 403 kts 202°
2026-04-12 10:47 -27.70734 154.42459 26948 ft 403 kts 202°
2026-04-12 10:47 -27.73485 154.41802 26947 ft 403 kts 202°
2026-04-12 10:47 -27.76234 154.41145 26949 ft 403 kts 202°
2026-04-12 10:47 -27.78979 154.40490 26948 ft 403 kts 202°
2026-04-12 10:48 -27.81730 154.39832 26949 ft 406 kts 202°
2026-04-12 10:48 -27.84511 154.39157 26954 ft 422 kts 202°
2026-04-12 10:48 -27.87441 154.38444 26949 ft 440 kts 201°
2026-04-12 10:48 -27.90491 154.37707 26949 ft 457 kts 201°
2026-04-12 10:49 -27.93656 154.36949 26953 ft 473 kts 201°
2026-04-12 10:49 -27.96922 154.36171 26954 ft 483 kts 200°
2026-04-12 10:49 -28.00207 154.35398 26950 ft 482 kts 200°
2026-04-12 10:49 -28.03486 154.34626 26953 ft 481 kts 200°
2026-04-12 10:50 -28.05750 154.34242 26955 ft 488 kts 195°
2026-04-12 10:50 -28.10249 154.33774 26955 ft 488 kts 196°
2026-04-12 10:50 -28.12449 154.33349 26956 ft 480 kts 202°
2026-04-12 10:50 -28.16686 154.31901 26959 ft 473 kts 207°
2026-04-12 10:51 -28.18753 154.31125 26957 ft 472 kts 207°
2026-04-12 10:51 -28.21857 154.29905 26958 ft 471 kts 208°
2026-04-12 10:51 -28.24941 154.28648 26960 ft 471 kts 209°
2026-04-12 10:51 -28.28684 154.27093 26961 ft 470 kts 209°
2026-04-12 10:52 -28.31758 154.25808 26960 ft 470 kts 209°
2026-04-12 10:52 -28.34826 154.24524 26961 ft 470 kts 209°
2026-04-12 10:52 -28.37898 154.23238 26962 ft 470 kts 209°
2026-04-12 10:52 -28.40973 154.21951 26966 ft 470 kts 209°
2026-04-12 10:53 -28.44039 154.20668 26960 ft 470 kts 209°
2026-04-12 10:53 -28.47116 154.19379 26970 ft 470 kts 209°
2026-04-12 10:53 -28.50189 154.18094 26966 ft 470 kts 209°
2026-04-12 10:53 -28.53265 154.16808 26964 ft 471 kts 208°
2026-04-12 10:54 -28.56396 154.15769 26967 ft 480 kts 202°
2026-04-12 10:54 -28.59710 154.15086 26972 ft 488 kts 197°
2026-04-12 10:54 -28.63099 154.14668 26969 ft 490 kts 195°
2026-04-12 10:54 -28.66497 154.14243 26972 ft 489 kts 196°
2026-04-12 10:55 -28.69894 154.13814 26969 ft 489 kts 196°
2026-04-12 10:55 -28.73273 154.13389 26971 ft 489 kts 195°
2026-04-12 10:55 -28.76663 154.12967 26972 ft 489 kts 195°
2026-04-12 10:55 -28.80050 154.12547 26972 ft 489 kts 195°
2026-04-12 10:56 -28.83432 154.12129 26972 ft 489 kts 195°
2026-04-12 10:56 -28.86777 154.11715 26977 ft 489 kts 195°
2026-04-12 10:56 -28.90202 154.11292 26977 ft 489 kts 195°
2026-04-12 10:56 -28.93551 154.10878 26977 ft 489 kts 195°
2026-04-12 10:57 -28.96936 154.10459 26981 ft 489 kts 195°
2026-04-12 10:57 -29.00319 154.10039 26978 ft 489 kts 195°
2026-04-12 10:57 -29.03708 154.09619 26980 ft 489 kts 195°
2026-04-12 10:57 -29.07093 154.09199 26978 ft 489 kts 195°
2026-04-12 10:58 -29.10485 154.08777 26979 ft 489 kts 195°
2026-04-12 10:58 -29.13870 154.08357 26981 ft 489 kts 195°
2026-04-12 10:58 -29.17254 154.07936 26983 ft 489 kts 195°
2026-04-12 10:58 -29.20641 154.07514 26981 ft 489 kts 195°
2026-04-12 10:59 -29.24029 154.07092 26984 ft 489 kts 195°
2026-04-12 10:59 -29.27419 154.06669 26981 ft 490 kts 195°
2026-04-12 10:59 -29.30763 154.06251 26982 ft 490 kts 195°
2026-04-12 10:59 -29.34159 154.05827 26986 ft 490 kts 195°
2026-04-12 11:00 -29.37553 154.05403 26988 ft 490 kts 195°
2026-04-12 11:00 -29.40945 154.04979 26987 ft 490 kts 195°
2026-04-12 11:00 -29.44336 154.04554 26984 ft 490 kts 195°
2026-04-12 11:00 -29.47731 154.04130 26982 ft 490 kts 195°
2026-04-12 11:01 -29.51123 154.03713 26980 ft 490 kts 195°
2026-04-12 11:01 -29.54518 154.03282 26984 ft 490 kts 196°
2026-04-12 11:01 -29.57916 154.02835 26994 ft 491 kts 196°
2026-04-12 11:01 -29.61315 154.02393 26998 ft 490 kts 195°
2026-04-12 11:02 -29.64709 154.01958 26992 ft 490 kts 195°
2026-04-12 11:02 -29.68055 154.01534 26991 ft 491 kts 195°
2026-04-12 11:02 -29.71451 154.01107 26989 ft 491 kts 195°
2026-04-12 11:02 -29.74843 154.00682 26992 ft 491 kts 195°
2026-04-12 11:03 -29.78236 154.00257 26992 ft 490 kts 195°
2026-04-12 11:03 -29.81641 153.99830 26989 ft 491 kts 195°
2026-04-12 11:03 -29.85035 153.99404 26991 ft 491 kts 195°
2026-04-12 11:03 -29.88429 153.98977 26991 ft 491 kts 195°
2026-04-12 11:04 -29.91835 153.98549 26993 ft 490 kts 195°
2026-04-12 11:04 -29.95229 153.98121 26991 ft 491 kts 195°
2026-04-12 11:04 -29.98583 153.97698 26995 ft 491 kts 195°
2026-04-12 11:04 -30.02022 153.97264 26994 ft 490 kts 195°
2026-04-12 11:05 -30.05368 153.96842 26994 ft 490 kts 195°
2026-04-12 11:05 -30.08754 153.96413 26999 ft 489 kts 195°
2026-04-12 11:05 -30.12143 153.95984 26996 ft 489 kts 195°
2026-04-12 11:05 -30.15535 153.95554 26995 ft 489 kts 195°
2026-04-12 11:06 -30.17776 153.95269 26994 ft 489 kts 195°
2026-04-12 11:06 -30.21154 153.94841 26993 ft 489 kts 195°
2026-04-12 11:06 -30.24536 153.94411 26994 ft 488 kts 195°
2026-04-12 11:06 -30.27917 153.93981 26991 ft 488 kts 195°
2026-04-12 11:07 -30.31293 153.93552 26994 ft 488 kts 195°
2026-04-12 11:07 -30.34671 153.93121 26993 ft 488 kts 195°
2026-04-12 11:07 -30.38047 153.92691 26993 ft 488 kts 195°
2026-04-12 11:07 -30.41431 153.92259 26993 ft 488 kts 195°
2026-04-12 11:08 -30.44812 153.91828 26992 ft 488 kts 195°
2026-04-12 11:08 -30.48190 153.91396 26993 ft 488 kts 195°
2026-04-12 11:08 -30.51512 153.90963 26989 ft 487 kts 196°
2026-04-12 11:08 -30.54883 153.90496 26991 ft 487 kts 196°
2026-04-12 11:09 -30.58257 153.90033 26990 ft 487 kts 196°
2026-04-12 11:09 -30.61623 153.89587 26989 ft 487 kts 196°
2026-04-12 11:09 -30.64999 153.89152 26990 ft 486 kts 195°
2026-04-12 11:09 -30.68363 153.88723 26990 ft 487 kts 195°
2026-04-12 11:10 -30.71732 153.88296 26988 ft 487 kts 195°
2026-04-12 11:10 -30.75089 153.87850 26985 ft 486 kts 197°
2026-04-12 11:10 -30.78442 153.87378 26989 ft 485 kts 197°
2026-04-12 11:10 -30.81804 153.86926 26986 ft 486 kts 196°
2026-04-12 11:11 -30.85134 153.86507 26983 ft 486 kts 195°
2026-04-12 11:11 -30.88533 153.86067 26981 ft 483 kts 197°
2026-04-12 11:11 -30.91761 153.85339 26983 ft 475 kts 204°
2026-04-12 11:11 -30.94903 153.84222 26988 ft 468 kts 209°
2026-04-12 11:12 -30.97886 153.82765 26983 ft 461 kts 214°
2026-04-12 11:12 -31.00781 153.81154 26982 ft 462 kts 214°
2026-04-12 11:12 -31.03687 153.79558 26981 ft 461 kts 214°
2026-04-12 11:12 -31.06598 153.77962 26988 ft 462 kts 214°
2026-04-12 11:13 -31.09500 153.76367 26981 ft 462 kts 214°
2026-04-12 11:13 -31.12409 153.74765 26979 ft 461 kts 214°
2026-04-12 11:13 -31.15312 153.73162 26986 ft 461 kts 214°
2026-04-12 11:13 -31.18217 153.71556 26983 ft 461 kts 214°
2026-04-12 11:14 -31.21119 153.69950 26985 ft 461 kts 214°
2026-04-12 11:14 -31.24027 153.68338 26980 ft 461 kts 213°
2026-04-12 11:14 -31.26890 153.66751 26987 ft 461 kts 213°
2026-04-12 11:14 -31.29827 153.65122 26984 ft 461 kts 213°
2026-04-12 11:15 -31.32690 153.63532 26986 ft 462 kts 213°
2026-04-12 11:15 -31.35595 153.61918 26987 ft 461 kts 213°
2026-04-12 11:15 -31.38493 153.60306 26987 ft 461 kts 213°
2026-04-12 11:15 -31.41390 153.58693 26986 ft 461 kts 213°
2026-04-12 11:16 -31.44290 153.57078 26986 ft 462 kts 213°
2026-04-12 11:16 -31.47190 153.55461 26988 ft 461 kts 213°
2026-04-12 11:16 -31.50087 153.53845 26988 ft 461 kts 213°
2026-04-12 11:16 -31.52988 153.52225 26987 ft 461 kts 213°
2026-04-12 11:17 -31.55884 153.50606 26991 ft 462 kts 213°
2026-04-12 11:17 -31.58783 153.48985 26986 ft 461 kts 213°
2026-04-12 11:17 -31.61680 153.47364 26986 ft 461 kts 213°
2026-04-12 11:17 -31.64586 153.45737 26989 ft 461 kts 213°
2026-04-12 11:18 -31.67570 153.44298 26991 ft 468 kts 207°
2026-04-12 11:18 -31.70715 153.43200 26992 ft 472 kts 203°
2026-04-12 11:18 -31.73873 153.42174 26990 ft 471 kts 203°
2026-04-12 11:18 -31.76989 153.41147 26993 ft 471 kts 203°
2026-04-12 11:19 -31.80148 153.40101 26992 ft 471 kts 203°
2026-04-12 11:19 -31.83300 153.39058 26993 ft 470 kts 203°
2026-04-12 11:19 -31.86450 153.38017 26991 ft 470 kts 203°
2026-04-12 11:19 -31.89599 153.36976 26992 ft 470 kts 203°
2026-04-12 11:20 -31.92756 153.35932 26994 ft 470 kts 203°
2026-04-12 11:20 -31.95904 153.34891 26996 ft 469 kts 203°
2026-04-12 11:20 -31.99047 153.33850 26994 ft 469 kts 203°
2026-04-12 11:20 -32.02145 153.32824 26919 ft 467 kts 203°
2026-04-12 11:21 -32.05267 153.31790 26586 ft 465 kts 203°
2026-04-12 11:21 -32.08371 153.30760 26185 ft 463 kts 203°
2026-04-12 11:21 -32.11452 153.29738 25715 ft 458 kts 203°
2026-04-12 11:21 -32.14513 153.28721 25203 ft 456 kts 203°
2026-04-12 11:22 -32.17557 153.27708 24723 ft 453 kts 202°
2026-04-12 11:22 -32.20589 153.26698 24267 ft 449 kts 202°
2026-04-12 11:22 -32.23574 153.25705 24054 ft 444 kts 202°
2026-04-12 11:22 -32.26559 153.24710 23993 ft 447 kts 202°
2026-04-12 11:23 -32.29562 153.23706 23990 ft 448 kts 202°
2026-04-12 11:23 -32.32557 153.22706 23990 ft 447 kts 202°
2026-04-12 11:23 -32.35558 153.21705 23988 ft 447 kts 202°
2026-04-12 11:23 -32.38553 153.20704 23989 ft 447 kts 202°
2026-04-12 11:24 -32.41547 153.19704 23989 ft 447 kts 202°
2026-04-12 11:24 -32.44509 153.18713 23985 ft 447 kts 202°
2026-04-12 11:24 -32.47493 153.17715 23988 ft 446 kts 202°
2026-04-12 11:24 -32.50489 153.16711 23985 ft 446 kts 202°
2026-04-12 11:25 -32.53474 153.15710 23989 ft 446 kts 202°
2026-04-12 11:25 -32.56465 153.14706 23987 ft 446 kts 202°
2026-04-12 11:25 -32.59450 153.13704 23988 ft 445 kts 202°
2026-04-12 11:25 -32.62438 153.12699 23984 ft 445 kts 202°
2026-04-12 11:26 -32.65417 153.11696 23987 ft 445 kts 203°
2026-04-12 11:26 -32.68300 153.10438 23991 ft 437 kts 211°
2026-04-12 11:26 -32.70932 153.08696 23993 ft 430 kts 219°
2026-04-12 11:26 -32.73247 153.06566 23991 ft 425 kts 225°
2026-04-12 11:27 -32.75507 153.04301 23986 ft 425 kts 225°
2026-04-12 11:27 -32.77767 153.02038 23991 ft 424 kts 225°
2026-04-12 11:27 -32.80017 152.99779 23990 ft 424 kts 225°
2026-04-12 11:27 -32.82271 152.97512 23993 ft 424 kts 225°
2026-04-12 11:28 -32.84521 152.95243 23993 ft 424 kts 225°
2026-04-12 11:28 -32.86779 152.92966 23989 ft 423 kts 225°
2026-04-12 11:28 -32.89024 152.90703 23995 ft 423 kts 225°
2026-04-12 11:28 -32.91271 152.88437 23992 ft 423 kts 225°
2026-04-12 11:29 -32.93514 152.86175 23997 ft 423 kts 225°
2026-04-12 11:29 -32.95758 152.83913 23997 ft 422 kts 225°
2026-04-12 11:29 -32.98004 152.81650 24005 ft 422 kts 225°
2026-04-12 11:29 -33.00215 152.79422 24002 ft 422 kts 225°
2026-04-12 11:30 -33.02454 152.77167 23997 ft 421 kts 225°
2026-04-12 11:30 -33.04687 152.74919 23997 ft 417 kts 225°
2026-04-12 11:30 -33.06877 152.72719 23996 ft 404 kts 225°
2026-04-12 11:30 -33.08986 152.70608 23995 ft 389 kts 225°
2026-04-12 11:31 -33.11017 152.68551 23997 ft 375 kts 222°
2026-04-12 11:31 -33.12978 152.66571 23993 ft 361 kts 222°
2026-04-12 11:31 -33.14864 152.64672 23992 ft 348 kts 222°
2026-04-12 11:31 -33.16657 152.62868 23994 ft 334 kts 222°
2026-04-12 11:32 -33.18414 152.61100 23995 ft 329 kts 222°
2026-04-12 11:32 -33.20180 152.59321 23995 ft 334 kts 222°
2026-04-12 11:32 -33.21961 152.57526 23994 ft 335 kts 222°
2026-04-12 11:32 -33.23741 152.55735 23995 ft 334 kts 222°
2026-04-12 11:33 -33.25518 152.53948 23993 ft 334 kts 222°
2026-04-12 11:33 -33.27295 152.52162 23999 ft 334 kts 222°
2026-04-12 11:33 -33.29075 152.50372 23999 ft 334 kts 222°
2026-04-12 11:33 -33.30855 152.48581 23996 ft 334 kts 221°
2026-04-12 11:34 -33.32833 152.47116 23998 ft 340 kts 206°
2026-04-12 11:34 -33.35175 152.46493 23998 ft 351 kts 188°
2026-04-12 11:34 -33.37650 152.46817 23993 ft 366 kts 172°
2026-04-12 11:34 -33.40010 152.48089 23993 ft 382 kts 154°
2026-04-12 11:35 -33.42016 152.50205 23990 ft 399 kts 137°
2026-04-12 11:35 -33.43518 152.53069 23995 ft 415 kts 120°
2026-04-12 11:35 -33.44330 152.56440 23988 ft 429 kts 103°
2026-04-12 11:35 -33.44356 152.60049 23987 ft 439 kts 86°
2026-04-12 11:36 -33.43575 152.63596 23980 ft 445 kts 71°
2026-04-12 11:36 -33.42101 152.66848 23989 ft 446 kts 56°
2026-04-12 11:36 -33.40050 152.69631 23984 ft 446 kts 40°
2026-04-12 11:36 -33.37534 152.71764 23987 ft 440 kts 25°
2026-04-12 11:37 -33.34713 152.73088 23982 ft 432 kts
2026-04-12 11:37 -33.31775 152.73626 23991 ft 427 kts
2026-04-12 11:37 -33.28881 152.74619 23986 ft 439 kts 21°
2026-04-12 11:37 -33.26285 152.76566 23988 ft 445 kts 39°
2026-04-12 11:38 -33.24175 152.79274 23989 ft 447 kts 52°
2026-04-12 11:38 -33.22360 152.82228 23986 ft 447 kts 55°
2026-04-12 11:38 -33.20579 152.85277 23989 ft 447 kts 56°
2026-04-12 11:38 -33.18813 152.88330 23990 ft 447 kts 56°
2026-04-12 11:39 -33.17052 152.91384 23983 ft 447 kts 56°
2026-04-12 11:39 -33.15282 152.94454 23987 ft 447 kts 56°
2026-04-12 11:39 -33.13502 152.97478 23978 ft 441 kts 48°
2026-04-12 11:39 -33.11379 153.00031 23983 ft 429 kts 32°
2026-04-12 11:40 -33.08849 153.01825 23985 ft 420 kts 17°
2026-04-12 11:40 -33.06123 153.02996 23985 ft 414 kts
2026-04-12 11:40 -33.03334 153.03798 23984 ft 410 kts
2026-04-12 11:40 -33.00537 153.04427 23983 ft 408 kts
2026-04-12 11:41 -32.97739 153.04996 23986 ft 407 kts
2026-04-12 11:41 -32.94975 153.05549 23984 ft 408 kts
2026-04-12 11:41 -32.92134 153.06125 23984 ft 409 kts
2026-04-12 11:41 -32.89370 153.06694 23986 ft 408 kts
2026-04-12 11:42 -32.86571 153.07275 23987 ft 408 kts
2026-04-12 11:42 -32.83774 153.07858 23994 ft 409 kts
2026-04-12 11:42 -32.80960 153.08445 23983 ft 409 kts
2026-04-12 11:43 -32.75351 153.09618 23991 ft 409 kts
2026-04-12 11:43 -32.72551 153.10201 23996 ft 410 kts
2026-04-12 11:43 -32.69739 153.10787 23987 ft 410 kts
2026-04-12 11:43 -32.66932 153.11374 23989 ft 410 kts
2026-04-12 11:44 -32.64122 153.11861 23990 ft 403 kts 355°
2026-04-12 11:44 -32.61370 153.11650 23989 ft 391 kts 341°
2026-04-12 11:44 -32.58818 153.10700 23992 ft 379 kts 327°
2026-04-12 11:44 -32.56592 153.09133 23992 ft 367 kts 315°
2026-04-12 11:45 -32.54768 153.07076 23991 ft 357 kts 303°
2026-04-12 11:45 -32.53398 153.04665 23993 ft 350 kts 291°
2026-04-12 11:45 -32.52502 153.02008 23998 ft 344 kts 281°
2026-04-12 11:45 -32.52099 152.99237 23995 ft 340 kts 270°
2026-04-12 11:46 -32.52181 152.96459 23995 ft 338 kts 260°
2026-04-12 11:46 -32.52727 152.93795 23998 ft 337 kts 250°
2026-04-12 11:46 -32.53726 152.91286 23999 ft 338 kts 240°
2026-04-12 11:46 -32.55165 152.89030 24002 ft 341 kts 230°
2026-04-12 11:47 -32.56942 152.87195 24003 ft 346 kts 219°
2026-04-12 11:47 -32.59067 152.85794 24003 ft 353 kts 208°
2026-04-12 11:47 -32.61442 152.84945 24003 ft 361 kts 197°
2026-04-12 11:47 -32.63934 152.84455 24004 ft 362 kts 196°
2026-04-12 11:48 -32.66421 152.83975 24004 ft 362 kts 196°
2026-04-12 11:48 -32.68903 152.83479 24005 ft 361 kts 196°
2026-04-12 11:48 -32.71379 152.82971 24007 ft 360 kts 197°
2026-04-12 11:48 -32.73847 152.82455 24003 ft 360 kts 197°
2026-04-12 11:49 -32.76317 152.81934 24001 ft 360 kts 197°
2026-04-12 11:49 -32.78785 152.81413 24007 ft 359 kts 197°
2026-04-12 11:49 -32.81246 152.80893 24002 ft 359 kts 197°
2026-04-12 11:49 -32.83711 152.80373 24001 ft 359 kts 197°
2026-04-12 11:50 -32.86174 152.79852 24000 ft 359 kts 197°
2026-04-12 11:50 -32.88604 152.79339 24003 ft 358 kts 197°
2026-04-12 11:50 -32.91057 152.78822 24004 ft 358 kts 197°
2026-04-12 11:50 -32.93512 152.78304 24008 ft 358 kts 197°
2026-04-12 11:51 -32.95966 152.77785 24002 ft 358 kts 197°
2026-04-12 11:51 -32.98414 152.77268 24001 ft 357 kts 197°
2026-04-12 11:51 -33.00864 152.76750 23997 ft 357 kts 197°
2026-04-12 11:51 -33.03309 152.76233 23997 ft 357 kts 197°
2026-04-12 11:52 -33.04925 152.75891 23997 ft 357 kts 197°
2026-04-12 11:52 -33.08196 152.75200 23996 ft 356 kts 197°
2026-04-12 11:52 -33.09808 152.74860 23997 ft 355 kts 197°
2026-04-12 11:52 -33.12231 152.74345 23999 ft 351 kts 196°
2026-04-12 11:53 -33.14614 152.73843 23995 ft 345 kts 196°
2026-04-12 11:53 -33.16982 152.73343 23994 ft 347 kts 196°
2026-04-12 11:53 -33.19365 152.72837 23992 ft 348 kts 196°
2026-04-12 11:53 -33.21752 152.72332 23992 ft 348 kts 196°
2026-04-12 11:54 -33.24134 152.71830 23992 ft 347 kts 196°
2026-04-12 11:54 -33.26512 152.71328 23992 ft 347 kts 196°
2026-04-12 11:54 -33.28930 152.71008 23993 ft 354 kts 187°
2026-04-12 11:54 -33.31421 152.71267 23986 ft 364 kts 176°
2026-04-12 11:55 -33.33866 152.72195 23988 ft 375 kts 163°
2026-04-12 11:55 -33.36136 152.73826 23986 ft 389 kts 150°
2026-04-12 11:55 -33.38086 152.76153 23984 ft 403 kts 135°
2026-04-12 11:55 -33.39524 152.79038 23988 ft 417 kts 120°
2026-04-12 11:56 -33.40337 152.82404 23988 ft 429 kts 103°
2026-04-12 11:56 -33.40388 152.86015 23981 ft 439 kts 86°
2026-04-12 11:56 -33.39627 152.89570 23983 ft 445 kts 69°
2026-04-12 11:56 -33.38104 152.92790 23976 ft 446 kts 51°
2026-04-12 11:57 -33.35930 152.95423 23980 ft 443 kts 34°
2026-04-12 11:57 -33.33287 152.97257 23982 ft 436 kts 17°
2026-04-12 11:57 -33.30400 152.98185 23982 ft 427 kts
2026-04-12 11:57 -33.27501 152.98763 23983 ft 427 kts
2026-04-12 11:58 -33.24572 152.99335 23984 ft 426 kts
2026-04-12 11:58 -33.21639 152.99921 23981 ft 427 kts
2026-04-12 11:58 -33.18712 153.00519 23985 ft 427 kts
2026-04-12 11:58 -33.15784 153.01127 23982 ft 427 kts
2026-04-12 11:59 -33.12873 153.01737 23986 ft 422 kts
2026-04-12 11:59 -33.09987 153.02343 23986 ft 421 kts
2026-04-12 11:59 -33.07087 153.02948 23988 ft 423 kts
2026-04-12 11:59 -33.04184 153.03554 23987 ft 423 kts
2026-04-12 12:00 -33.01283 153.04162 23986 ft 423 kts
2026-04-12 12:00 -32.98384 153.04769 23990 ft 423 kts
2026-04-12 12:00 -32.95480 153.05377 23989 ft 424 kts
2026-04-12 12:00 -32.92608 153.05979 23993 ft 424 kts
2026-04-12 12:01 -32.89701 153.06589 23993 ft 423 kts
2026-04-12 12:01 -32.86801 153.07197 23991 ft 424 kts
2026-04-12 12:01 -32.83894 153.07805 23990 ft 425 kts
2026-04-12 12:01 -32.80986 153.08414 23993 ft 424 kts
2026-04-12 12:02 -32.78084 153.09023 23997 ft 424 kts
2026-04-12 12:02 -32.75177 153.09632 23998 ft 424 kts
2026-04-12 12:02 -32.72268 153.10240 23994 ft 425 kts
2026-04-12 12:02 -32.69358 153.10850 23988 ft 424 kts
2026-04-12 12:03 -32.66452 153.11459 23996 ft 424 kts
2026-04-12 12:03 -32.63538 153.11865 23993 ft 416 kts 352°
2026-04-12 12:03 -32.60706 153.11469 23989 ft 404 kts 338°
2026-04-12 12:03 -32.58157 153.10327 23989 ft 391 kts 323°
2026-04-12 12:04 -32.55953 153.08550 23992 ft 378 kts 310°
2026-04-12 12:04 -32.54201 153.06293 23992 ft 366 kts 298°
2026-04-12 12:04 -32.52949 153.03716 23996 ft 357 kts 286°
2026-04-12 12:04 -32.52211 153.00956 24000 ft 348 kts 275°
2026-04-12 12:05 -32.51979 152.98128 24001 ft 342 kts 264°
2026-04-12 12:05 -32.52236 152.95352 23999 ft 338 kts 255°
2026-04-12 12:05 -32.52962 152.92699 24005 ft 344 kts 244°
2026-04-12 12:05 -32.54185 152.90172 24006 ft 365 kts 234°
2026-04-12 12:06 -32.55944 152.87886 24005 ft 387 kts 223°
2026-04-12 12:06 -32.58241 152.86029 24004 ft 413 kts 210°
2026-04-12 12:06 -32.61008 152.84776 24006 ft 439 kts 199°
2026-04-12 12:06 -32.64081 152.84049 24005 ft 457 kts 194°
2026-04-12 12:07 -32.67234 152.83469 24007 ft 464 kts 193°
2026-04-12 12:07 -32.70372 152.82903 24006 ft 444 kts 193°
2026-04-12 12:07 -32.73304 152.82352 24006 ft 422 kts 194°
2026-04-12 12:07 -32.76148 152.81785 24008 ft 407 kts 195°
2026-04-12 12:08 -32.78852 152.81227 24004 ft 392 kts 195°
2026-04-12 12:08 -32.81524 152.80665 24005 ft 378 kts 195°
2026-04-12 12:08 -32.84070 152.80126 24007 ft 364 kts 195°
2026-04-12 12:08 -32.86517 152.79608 24007 ft 350 kts 196°
2026-04-12 12:09 -32.88894 152.79103 24006 ft 344 kts 196°
2026-04-12 12:09 -32.91276 152.78591 24002 ft 350 kts 196°
2026-04-12 12:09 -32.93676 152.78078 24003 ft 350 kts 196°
2026-04-12 12:09 -32.96073 152.77570 24006 ft 349 kts 196°
2026-04-12 12:10 -32.98436 152.77071 24004 ft 349 kts 196°
2026-04-12 12:10 -33.00826 152.76566 24002 ft 349 kts 196°
2026-04-12 12:10 -33.03219 152.76060 24002 ft 349 kts 196°
2026-04-12 12:10 -33.05614 152.75554 24001 ft 349 kts 196°
2026-04-12 12:11 -33.08005 152.75049 23999 ft 349 kts 196°
2026-04-12 12:11 -33.10397 152.74544 23998 ft 349 kts 196°
2026-04-12 12:11 -33.12784 152.74039 24001 ft 349 kts 196°
2026-04-12 12:11 -33.15175 152.73534 24000 ft 349 kts 196°
2026-04-12 12:12 -33.17565 152.73030 23997 ft 349 kts 196°
2026-04-12 12:12 -33.19961 152.72523 23999 ft 349 kts 196°
2026-04-12 12:12 -33.22352 152.72018 23996 ft 349 kts 196°
2026-04-12 12:12 -33.24750 152.71512 23998 ft 349 kts 196°
2026-04-12 12:13 -33.27142 152.71009 23993 ft 349 kts 195°
2026-04-12 12:13 -33.29589 152.70830 23995 ft 357 kts 184°
2026-04-12 12:13 -33.32079 152.71260 23995 ft 368 kts 173°
2026-04-12 12:13 -33.34502 152.72376 23994 ft 380 kts 160°
2026-04-12 12:14 -33.36709 152.74194 23991 ft 393 kts 146°
2026-04-12 12:14 -33.38551 152.76687 23990 ft 407 kts 131°
2026-04-12 12:14 -33.39859 152.79747 23989 ft 421 kts 115°
2026-04-12 12:14 -33.40489 152.83209 23987 ft 432 kts 99°
2026-04-12 12:15 -33.40335 152.86834 23985 ft 441 kts 82°
2026-04-12 12:15 -33.39377 152.90328 23985 ft 445 kts 64°
2026-04-12 12:15 -33.37683 152.93415 23985 ft 445 kts 47°
2026-04-12 12:15 -33.35377 152.95859 23982 ft 441 kts 30°
2026-04-12 12:16 -33.32659 152.97458 23986 ft 432 kts 12°
2026-04-12 12:16 -33.29756 152.98211 23984 ft 426 kts
2026-04-12 12:16 -33.26834 152.98813 23984 ft 426 kts
2026-04-12 12:16 -33.23911 152.99423 23988 ft 426 kts
2026-04-12 12:17 -33.20990 153.00034 23986 ft 426 kts
2026-04-12 12:17 -33.18103 153.00639 23989 ft 426 kts
2026-04-12 12:17 -33.15181 153.01252 23991 ft 426 kts
2026-04-12 12:17 -33.12260 153.01863 23988 ft 426 kts
2026-04-12 12:18 -33.09343 153.02473 23988 ft 426 kts
2026-04-12 12:18 -33.06426 153.03084 23986 ft 426 kts
2026-04-12 12:18 -33.03509 153.03695 23989 ft 426 kts
2026-04-12 12:18 -33.00586 153.04307 23990 ft 426 kts
2026-04-12 12:19 -32.97674 153.04917 23992 ft 425 kts
2026-04-12 12:19 -32.94749 153.05530 23992 ft 425 kts
2026-04-12 12:19 -32.91867 153.06134 23992 ft 425 kts
2026-04-12 12:19 -32.88950 153.06745 23988 ft 425 kts
2026-04-12 12:20 -32.86039 153.07355 23997 ft 425 kts
2026-04-12 12:20 -32.83120 153.07967 24001 ft 425 kts
2026-04-12 12:20 -32.80208 153.08577 23997 ft 425 kts
2026-04-12 12:20 -32.77300 153.09186 24000 ft 425 kts
2026-04-12 12:21 -32.74385 153.09797 23997 ft 425 kts
2026-04-12 12:21 -32.71471 153.10408 23989 ft 425 kts
2026-04-12 12:21 -32.68562 153.11017 23995 ft 424 kts
2026-04-12 12:21 -32.65651 153.11626 23996 ft 424 kts
2026-04-12 12:22 -32.62748 153.11840 23998 ft 413 kts 348°
2026-04-12 12:22 -32.59974 153.11226 24000 ft 400 kts 334°
2026-04-12 12:22 -32.57484 153.09881 23998 ft 386 kts 320°
2026-04-12 12:22 -32.55405 153.07958 24001 ft 374 kts 307°
2026-04-12 12:23 -32.53792 153.05603 24006 ft 363 kts 295°
2026-04-12 12:23 -32.52693 153.02999 24002 ft 354 kts 283°
2026-04-12 12:23 -32.52088 153.00206 24002 ft 347 kts 272°
2026-04-12 12:23 -32.51986 152.97378 24005 ft 341 kts 262°
2026-04-12 12:24 -32.52369 152.94621 24005 ft 338 kts 252°
2026-04-12 12:24 -32.53207 152.92033 24010 ft 336 kts 242°
2026-04-12 12:24 -32.54463 152.89705 24012 ft 336 kts 232°
2026-04-12 12:24 -32.56093 152.87715 24010 ft 338 kts 222°
2026-04-12 12:25 -32.58052 152.86139 24008 ft 342 kts 212°
2026-04-12 12:25 -32.60264 152.85061 24009 ft 348 kts 201°
2026-04-12 12:25 -32.62653 152.84486 24009 ft 352 kts 195°
2026-04-12 12:25 -32.65077 152.84020 24012 ft 352 kts 195°
2026-04-12 12:26 -32.67489 152.83547 24006 ft 352 kts 195°
2026-04-12 12:26 -32.69903 152.83057 24007 ft 351 kts 195°
2026-04-12 12:26 -32.72310 152.82557 24005 ft 351 kts 196°
2026-04-12 12:26 -32.74689 152.82057 24006 ft 351 kts 196°
2026-04-12 12:27 -32.77098 152.81549 24012 ft 351 kts 196°
2026-04-12 12:27 -32.79499 152.81042 24009 ft 351 kts 196°
2026-04-12 12:27 -32.81904 152.80533 24012 ft 351 kts 196°
2026-04-12 12:27 -32.84306 152.80026 24007 ft 351 kts 196°
2026-04-12 12:28 -32.86707 152.79519 24007 ft 350 kts 196°
2026-04-12 12:28 -32.89116 152.79011 24009 ft 350 kts 196°
2026-04-12 12:28 -32.91514 152.78505 24008 ft 350 kts 196°
2026-04-12 12:28 -32.93919 152.77997 24003 ft 350 kts 196°
2026-04-12 12:29 -32.96320 152.77489 24003 ft 350 kts 196°
2026-04-12 12:29 -32.98723 152.76982 24007 ft 350 kts 196°
2026-04-12 12:29 -33.01122 152.76475 24010 ft 350 kts 196°
2026-04-12 12:29 -33.03488 152.75975 24014 ft 350 kts 196°
2026-04-12 12:30 -33.05886 152.75468 24004 ft 350 kts 196°
2026-04-12 12:30 -33.08283 152.74962 24003 ft 350 kts 196°
2026-04-12 12:30 -33.10682 152.74455 24003 ft 350 kts 196°
2026-04-12 12:30 -33.13075 152.73949 24003 ft 350 kts 196°
2026-04-12 12:31 -33.15472 152.73443 24003 ft 350 kts 196°
2026-04-12 12:31 -33.17868 152.72937 24000 ft 350 kts 196°
2026-04-12 12:31 -33.20263 152.72431 23999 ft 350 kts 196°
2026-04-12 12:31 -33.22662 152.71924 24000 ft 350 kts 196°
2026-04-12 12:32 -33.25059 152.71418 23999 ft 350 kts 196°
2026-04-12 12:32 -33.27457 152.70924 23998 ft 351 kts 193°
2026-04-12 12:32 -33.28280 152.70826 23997 ft 354 kts 190°
2026-04-12 12:32 -33.32426 152.71347 23997 ft 370 kts 171°
2026-04-12 12:33 -33.34833 152.72564 23996 ft 383 kts 158°
2026-04-12 12:33 -33.37004 152.74485 23996 ft 396 kts 144°
2026-04-12 12:33 -33.38764 152.77036 23995 ft 410 kts 129°
2026-04-12 12:33 -33.39993 152.80167 23989 ft 423 kts 113°
2026-04-12 12:34 -33.40525 152.83678 23989 ft 434 kts 96°
2026-04-12 12:34 -33.40263 152.87300 23989 ft 442 kts 79°
2026-04-12 12:34 -33.39200 152.90764 23984 ft 446 kts 62°
2026-04-12 12:34 -33.37415 152.93780 23983 ft 445 kts 44°
2026-04-12 12:35 -33.35048 152.96116 23988 ft 439 kts 27°
2026-04-12 12:35 -33.32297 152.97591 23984 ft 430 kts 10°
2026-04-12 12:35 -33.29395 152.98275 23989 ft 425 kts
2026-04-12 12:35 -33.26475 152.98768 23986 ft 419 kts 354°
2026-04-12 12:36 -33.23634 152.98437 23989 ft 404 kts 337°
2026-04-12 12:36 -33.21062 152.97190 23923 ft 402 kts 321°
2026-04-12 12:36 -33.18832 152.95108 23717 ft 413 kts 307°
2026-04-12 12:36 -33.17088 152.92425 23470 ft 403 kts 294°
2026-04-12 12:37 -33.15980 152.89422 23199 ft 389 kts 281°
2026-04-12 12:37 -33.15626 152.87352 23027 ft 381 kts 271°
2026-04-12 12:37 -33.15663 152.84238 22769 ft 372 kts 260°
2026-04-12 12:37 -33.16017 152.80187 22424 ft 371 kts 263°
2026-04-12 12:38 -33.16019 152.77095 22167 ft 375 kts 269°
2026-04-12 12:38 -33.15767 152.73990 21903 ft 376 kts 273°
2026-04-12 12:38 -33.15359 152.70888 21343 ft 378 kts 275°
2026-04-12 12:38 -33.15039 152.68800 20616 ft 380 kts 276°
2026-04-12 12:39 -33.14531 152.65693 19738 ft 380 kts 277°
2026-04-12 12:39 -33.14023 152.62678 19208 ft 369 kts 277°
2026-04-12 12:39 -33.13527 152.59734 18730 ft 359 kts 277°
2026-04-12 12:39 -33.13041 152.56799 18079 ft 361 kts 277°
2026-04-12 12:40 -33.12559 152.53866 17451 ft 360 kts 277°
2026-04-12 12:40 -33.12080 152.50928 16826 ft 359 kts 277°
2026-04-12 12:40 -33.11603 152.48005 16203 ft 359 kts 277°
2026-04-12 12:40 -33.11125 152.45091 15585 ft 358 kts 277°
2026-04-12 12:41 -33.10644 152.42171 14940 ft 358 kts 277°
2026-04-12 12:41 -33.10161 152.39255 14285 ft 359 kts 277°
2026-04-12 12:41 -33.09678 152.36342 13652 ft 358 kts 277°
2026-04-12 12:41 -33.09195 152.33439 13040 ft 356 kts 277°
2026-04-12 12:42 -33.08720 152.30592 12431 ft 354 kts 277°
2026-04-12 12:42 -33.07783 152.25011 11917 ft 331 kts 277°
2026-04-12 12:42 -33.07269 152.22335 11300 ft 334 kts 284°
2026-04-12 12:43 -33.06250 152.19825 10744 ft 340 kts 298°
2026-04-12 12:43 -33.04720 152.17663 10395 ft 339 kts 308°
2026-04-12 12:43 -33.03145 152.15654 10254 ft 323 kts 302°
2026-04-12 12:43 -33.01727 152.13663 10110 ft 307 kts 301°
2026-04-12 12:44 -33.00371 152.11770 9980 ft 292 kts 302°
2026-04-12 12:44 -32.99050 152.09999 9512 ft 285 kts 303°
2026-04-12 12:44 -32.97719 152.08267 9055 ft 281 kts 304°
2026-04-12 12:44 -32.96392 152.06571 8576 ft 279 kts 305°
2026-04-12 12:45 -32.95080 152.04876 8099 ft 276 kts 304°
2026-04-12 12:45 -32.93828 152.03152 7584 ft 274 kts 304°
2026-04-12 12:45 -32.92620 152.01456 7132 ft 271 kts 304°
2026-04-12 12:45 -32.91402 151.99753 6680 ft 269 kts 305°
2026-04-12 12:46 -32.90192 151.98074 6210 ft 266 kts 305°
2026-04-12 12:46 -32.88978 151.96401 5651 ft 267 kts 305°
2026-04-12 12:46 -32.87764 151.94739 5117 ft 266 kts 305°
2026-04-12 12:46 -32.86553 151.93094 4719 ft 259 kts 304°
2026-04-12 12:47 -32.85410 151.91548 4570 ft 238 kts 304°
2026-04-12 12:47 -32.84357 151.90124 4428 ft 221 kts 304°
2026-04-12 12:47 -32.83354 151.88810 4320 ft 208 kts 304°
2026-04-12 12:47 -32.82399 151.87558 4061 ft 202 kts 306°
2026-04-12 12:48 -32.81480 151.86311 3892 ft 196 kts 306°
2026-04-12 12:48 -32.80593 151.85123 3742 ft 190 kts 306°
2026-04-12 12:48 -32.79870 151.83882 3539 ft 174 kts 283°
2026-04-12 12:48 -32.79870 151.82523 3125 ft 164 kts 248°
2026-04-12 12:49 -32.80613 151.81521 2655 ft 168 kts 213°
2026-04-12 12:49 -32.81789 151.81341 2235 ft 182 kts 176°
2026-04-12 12:49 -32.82882 151.82138 2049 ft 196 kts 137°
2026-04-12 12:49 -32.83586 151.83604 2026 ft 208 kts 123°
2026-04-12 12:50 -32.84238 151.85120 2025 ft 206 kts 123°
2026-04-12 12:50 -32.84754 151.86712 2014 ft 209 kts 100°
2026-04-12 12:50 -32.84489 151.88420 2023 ft 216 kts 62°
2026-04-12 12:50 -32.83458 151.89685 2025 ft 212 kts 23°
2026-04-12 12:51 -32.82110 151.89974 1937 ft 189 kts 338°
2026-04-12 12:51 -32.81081 151.89126 1886 ft 183 kts 309°
2026-04-12 12:51 -32.80180 151.88095 2008 ft 180 kts 307°
2026-04-12 12:51 -32.79284 151.87070 2030 ft 179 kts 308°
2026-04-12 12:52 -32.78611 151.85899 2025 ft 167 kts 275°
2026-04-12 12:52 -32.78948 151.84650 2120 ft 165 kts 229°
2026-04-12 12:52 -32.79979 151.84010 2005 ft 178 kts 193°
2026-04-12 12:52 -32.81242 151.84055 1847 ft 182 kts 181°
2026-04-12 12:53 -32.82509 151.84262 1836 ft 183 kts 178°
2026-04-12 12:53 -32.83710 151.84703 1687 ft 186 kts 148°
2026-04-12 12:53 -32.84218 151.86050 1861 ft 189 kts 87°
2026-04-12 12:53 -32.83598 151.87370 1640 ft 189 kts 26°
2026-04-12 12:54 -32.82390 151.87389 1173 ft 179 kts 322°
2026-04-12 12:54 -32.81606 151.86323 567 ft 171 kts 304°
2026-04-12 12:54 -32.80860 151.85237 132 ft 164 kts 312°
2026-04-12 12:54 -32.80166 151.84280 37 ft 143 kts 311°
2026-04-12 12:55 -32.79510 151.83371 62 ft 166 kts 308°
2026-04-12 12:55 -32.78730 151.82263 601 ft 184 kts 306°
2026-04-12 12:55 -32.77885 151.81059 1180 ft 191 kts 304°
2026-04-12 12:55 -32.77492 151.79703 1600 ft 169 kts 259°
2026-04-12 12:56 -32.78212 151.78615 1613 ft 182 kts 205°
2026-04-12 12:56 -32.79431 151.78782 1433 ft 188 kts 148°
2026-04-12 12:56 -32.80359 151.79850 1172 ft 182 kts 137°
2026-04-12 12:56 -32.81179 151.80877 1104 ft 159 kts 135°
2026-04-12 12:57 -32.81934 151.81875 1125 ft 163 kts 134°
2026-04-12 12:57 -32.82714 151.82975 1277 ft 187 kts 134°
2026-04-12 12:57 -32.83567 151.84243 1445 ft 198 kts 131°
2026-04-12 12:57 -32.84302 151.85488 1444 ft 178 kts 118°
2026-04-12 12:58 -32.84191 151.86915 1530 ft 179 kts 48°
2026-04-12 12:58 -32.83124 151.87569 1483 ft 178 kts 349°
2026-04-12 12:58 -32.81998 151.87006 1072 ft 176 kts 310°
2026-04-12 12:58 -32.81265 151.85852 418 ft 176 kts 304°
2026-04-12 12:59 -32.80453 151.84682 360 ft 197 kts 308°
2026-04-12 12:59 -32.79594 151.83462 479 ft 180 kts 308°
2026-04-12 12:59 -32.78814 151.82433 656 ft 164 kts 309°
2026-04-12 12:59 -32.78054 151.81419 978 ft 165 kts 307°
2026-04-12 13:00 -32.77678 151.80213 1292 ft 158 kts 258°
2026-04-12 13:00 -32.78396 151.79256 1620 ft 179 kts 204°
2026-04-12 13:00 -32.79749 151.79448 1672 ft 223 kts 160°
2026-04-12 13:00 -32.80889 151.80649 1568 ft 209 kts 133°
2026-04-12 13:01 -32.81728 151.81950 1530 ft 188 kts 133°
2026-04-12 13:01 -32.82554 151.83072 1287 ft 178 kts 139°
2026-04-12 13:01 -32.83393 151.84107 1179 ft 169 kts 138°
2026-04-12 13:01 -32.84099 151.85201 1236 ft 170 kts 111°
2026-04-12 13:02 -32.83954 151.86586 1249 ft 177 kts 45°
2026-04-12 13:02 -32.82928 151.87113 1101 ft 160 kts 345°
2026-04-12 13:02 -32.81836 151.86671 657 ft 172 kts 314°
2026-04-12 13:02 -32.81122 151.85633 258 ft 155 kts 308°
2026-04-12 13:03 -32.80467 151.84700 44 ft 138 kts 311°
2026-04-12 13:03 -32.79908 151.83934 41 ft 107 kts 309°
2026-04-12 13:03 -32.79563 151.83446 35 ft 54 kts 310°
2026-04-12 13:03 -32.79365 151.83171 38 ft 32 kts 311°
2026-04-12 13:04 -32.79254 151.83025 38 ft 16 kts 325°
2026-04-12 13:04 -32.79168 151.83048 39 ft 11 kts 36°
2026-04-12 13:04 -32.79134 151.83118 40 ft 9 kts 85°
2026-04-12 13:04 -32.79170 151.83185 40 ft 11 kts 130°
2026-04-12 13:05 -32.79220 151.83256 40 ft 12 kts 129°
2026-04-12 13:05 -32.79290 151.83354 38 ft 18 kts 130°
2026-04-12 13:05 -32.79378 151.83479 36 ft 21 kts 129°
2026-04-12 13:05 -32.79474 151.83610 35 ft 21 kts 131°
2026-04-12 13:06 -32.79556 151.83724 36 ft 16 kts 129°
2026-04-12 13:06 -32.79557 151.83824 38 ft 12 kts 62°
2026-04-12 13:06 -32.79510 151.83904 38 ft 11 kts 63°
2026-04-12 13:06 -32.79545 151.83931 38 ft 5 kts 179°
2026-04-12 13:07 -32.79581 151.83922 39 ft 5 kts 189°
2026-04-12 13:07 -32.79607 151.83918 38 ft 0 kts 189°